This demonstration page uses our WeatherBlox Daily Observations layout. Learn more.

Left ArrowRight Arrow

Hourly Observations for May 29, 2017

Temp ( °F °C ) Dew Point ( °F °C ) Humidity (%) Winds ( mph kmh ) Pressure ( in mb ) Visibility ( mi km ) Precip ( " mm )
12:56 am 00:56 Clear 53 11.7 47 8.5 81 81 Calm 29.86 1011 10 16 0.00 0.00
1:56 am 01:56 Clear 55 12.9 46 7.8 71 71 WNW 6 9 29.87 1011 10 16 0.00 0.00
2:56 am 02:56 Clear 54 12.3 46 7.8 74 74 WNW 3 6 29.90 1013 10 16 0.00 0.00
3:56 am 03:56 Clear 54 12 46 7.7 75 75 Calm 29.91 1013 10 16 0.00 0.00
4:56 am 04:56 Partly Cloudy 52 10.9 47 8.1 83 83 W 7 11 29.93 1014 10 16 0.00 0.00
5:56 am 05:56 Sunny 52 10.9 45 7.4 79 79 WNW 7 11 29.94 1014 10 16 0.00 0.00
6:56 am 06:56 Mostly Sunny 54 12.3 47 8.6 78 78 NW 7 11 29.97 1015 10 16 0.00 0.00
7:56 am 07:56 Sunny 59 15 48 9.1 68 68 WNW 8 13 29.96 1015 10 16 0.00 0.00
8:56 am 08:56 Sunny 64 17.7 50 9.8 60 60 WNW 7 11 29.97 1015 10 16 0.00 0.00
9:56 am 09:56 Sunny 68 20.1 50 9.9 52 52 W 9 15 29.99 1016 10 16 0.00 0.00
10:56 am 10:56 Sunny 71 21.6 49 9.5 46 46 W 8 13 29.99 1016 10 16 0.00 0.00
11:56 am 11:56 Mostly Sunny 72 22 46 7.8 40 40 WNW 13 20 30.01 1016 10 16 0.00 0.00
12:56 pm 12:56 Mostly Sunny 73 22.9 42 5.3 32 32 WNW 20 31 30.01 1016 10 16 0.00 0.00
1:55 pm 13:55 Mostly Sunny 75 24 43 6 31 31 W 17 28 30.00 1016 10 16 0.00 0.00
2:24 pm 14:24 Mostly Sunny 73 23 39 4 29 29 W 24 39 30.00 1016 10 16 0.00 0.00
2:53 pm 14:53 Mostly Sunny 75 24 39 4 27 27 W 23 37 29.99 1016 10 16 0.00 0.00
2:56 pm 14:56 Mostly Sunny 75 23.7 39 4.1 28 28 W 17 28 29.99 1016 10 16 0.00 0.00
3:56 pm 15:56 Mostly Sunny 75 23.8 39 3.7 27 27 WNW 22 35 29.98 1015 10 16 0.00 0.00
4:10 pm 16:10 Sunny 75 24 39 4 27 27 NW 16 26 29.98 1015 10 16 0.00 0.00
4:56 pm 16:56 Sunny 75 23.7 38 3.6 27 27 NW 16 26 29.99 1016 10 16 0.00 0.00
5:56 pm 17:56 Mostly Sunny 74 23.1 38 3.6 28 28 NW 13 20 29.99 1016 10 16 0.00 0.00
6:56 pm 18:56 Sunny 72 22.4 37 3 28 28 NW 13 20 29.98 1015 10 16 0.00 0.00
7:56 pm 19:56 Sunny 69 20.8 37 2.6 30 30 NW 12 19 29.99 1016 10 16 0.00 0.00
8:56 pm 20:56 Clear 66 18.9 41 5 40 40 NW 8 13 30.00 1016 10 16 0.00 0.00
9:56 pm 21:56 Partly Cloudy 62 16.6 43 6.1 50 50 WNW 6 9 30.01 1016 10 16 0.00 0.00
10:56 pm 22:56 Clear 55 12.9 46 7.8 71 71 Calm 30.03 1017 10 16 0.00 0.00
11:56 pm 23:56 Clear 55 12.7 45 7.2 69 69 Calm 30.03 1017 10 16 0.00 0.00

Powered by AerisWeather